Wetbulb
73.56 75.34 75.59 75.76 76.08 75.19 75.12 75.62 75.57 75.65 76.24 76.14 75.79 75.94 76.75 76.47 77.01 76.87 77.26 77.91 77.89 78.19 77.79 78.21 77.90 77.94 77.87 77.90 77.74 77.55 77.67 77.24 77.09 77.10 76.78 76.82 76.46 76.29 76.10 75.70 76.78 75.90 75.84
74.26 75.35 75.73 75.81 75.94 75.69 74.72 75.06 74.77 75.29 76.03 76.27 76.21 76.23 76.21 76.63 77.38 77.47 78.09 78.08 77.89 77.74 77.90 78.21 77.71 77.73 77.61 77.29 77.07 77.04 77.21 77.27 76.91 76.00 76.85 77.05 76.53 76.47 76.26 76.24 77.00 76.17 75.34
74.40 75.36 75.89 75.78 75.90 75.87 75.57 74.96 75.42 75.26 76.00 76.41 76.26 75.99 76.47 77.55 77.46 77.71 78.06 78.15 78.86 78.27 77.91 77.76 77.59 77.37 77.41 77.19 77.15 77.01 76.83 76.37 76.25 75.52 76.12 75.91 75.71 76.46 76.31 76.19 75.96 75.62 75.18
74.65 75.52 75.85 75.55 76.21 75.80 75.17 75.34 75.43 75.74 75.97 76.42 76.44 76.31 77.41 77.79 78.46 77.84 77.39 77.89 77.72 77.53 77.15 77.09 77.23 77.29 77.07 76.51 76.92 77.15 75.92 75.51 75.37 75.88 75.95 75.36 75.89 75.71 75.34 75.06 75.37 75.37 75.24
74.61 76.04 76.21 75.87 75.80 75.68 75.87 75.16 75.50 75.93 76.67 76.35 76.55 77.63 77.89 78.05 77.92 77.60 77.83 77.89 77.67 77.29 77.11 77.23 77.10 77.49 77.45 77.27 77.08 76.97 74.98 74.43 73.32 76.06 74.81 75.33 76.23 75.66 75.42 75.32 75.15 74.94 75.08
75.07 75.96 76.41 76.39 75.63 75.80 75.65 75.46 75.87 76.72 76.44 76.45 77.17 77.07 77.65 76.94 77.92 77.79 77.86 77.66 77.34 77.04 77.05 77.25 77.11 77.16 77.20 76.94 76.19 75.03 74.22 72.84 74.60 73.67 74.13 73.68 73.73 73.72 74.02 74.88 75.22 75.38 74.75
75.29 76.11 76.66 76.82 76.31 75.88 76.13 76.18 76.77 76.64 76.54 76.68 77.15 76.96 77.18 77.66 77.49 78.13 77.50 76.71 76.55 76.96 77.19 76.86 77.38 77.52 77.09 76.69 75.84 74.99 73.67 73.14 72.94 73.77 73.92 74.10 75.26 74.75 74.50 73.82 73.45 73.42 73.30
75.25 75.99 76.14 76.92 76.68 76.23 76.17 76.83 76.68 76.93 77.24 77.39 77.34 77.33 77.62 77.67 77.74 77.60 76.79 75.99 76.05 76.49 76.63 76.71 77.27 77.82 77.01 76.40 76.12 75.19 72.66 72.94 71.96 71.29 71.76 74.25 75.70 75.52 75.80 75.55 75.46 75.17 74.88
74.89 74.95 75.41 76.44 77.11 76.84 76.85 76.99 77.20 77.01 76.93 77.82 77.95 77.99 77.22 77.55 77.63 77.28 76.70 76.46 76.68 76.77 76.74 76.58 76.63 76.74 76.96 76.67 76.09 74.94 71.45 71.52 70.67 70.84 69.37 69.44 72.57 72.75 72.96 72.99 73.29 73.73 74.17
75.09 74.57 74.55 75.74 76.41 76.75 77.05 76.96 76.77 77.15 77.31 77.78 77.45 77.45 77.37 77.67 77.34 76.76 77.44 76.99 76.63 76.63 76.39 76.30 76.33 76.33 76.05 76.73 75.90 75.01 72.23 72.11 71.55 70.94 69.26 70.12 71.01 70.38 70.31 70.44 70.58 71.06 71.64
73.59 74.14 74.52 75.21 76.67 77.25 77.29 77.33 76.58 77.17 77.51 77.66 77.55 77.21 77.81 76.76 76.98 77.63 76.93 76.63 76.41 76.41 76.11 76.14 76.19 75.83 75.88 76.19 76.13 75.71 75.80 72.59 71.54 71.50 70.00 70.82 70.37 70.17 70.10 69.75 69.65 69.51 69.40
72.78 73.34 74.79 75.15 76.11 76.63 75.87 77.13 77.32 76.96 77.56 78.16 78.68 78.43 77.28 77.49 77.72 76.97 77.32 76.58 76.63 75.64 75.07 74.28 74.22 75.72 77.51 76.49 77.23 77.31 75.41 73.88 72.96 71.58 71.36 71.32 70.29 70.25 70.02 69.58 69.45 69.26 69.19
73.05 73.15 74.47 75.15 76.08 75.04 75.97 76.08 76.56 76.86 77.24 77.91 78.69 78.56 77.62 77.54 76.99 77.03 76.77 76.72 77.27 75.28 76.65 77.07 77.65 77.49 77.59 77.16 76.51 76.50 76.90 75.12 74.79 74.44 72.44 71.89 71.09 70.41 70.04 69.77 69.37 68.87 68.68
72.62 73.13 74.37 75.05 75.29 75.29 75.78 75.70 76.29 76.43 76.60 76.32 77.15 78.14 77.06 76.25 76.72 77.19 76.46 76.83 77.80 76.98 77.23 77.45 77.17 78.05 77.88 77.66 77.03 76.37 76.90 76.21 75.01 75.48 73.37 72.30 71.75 71.59 70.81 70.25 69.74 69.40 69.07
72.23 73.26 74.40 75.23 75.54 75.89 76.11 75.81 76.59 76.23 76.19 76.56 76.60 77.18 77.31 76.90 76.40 76.22 76.14 77.01 77.84 78.13 77.25 77.16 77.30 77.82 77.59 76.70 76.74 76.38 76.07 76.06 75.90 75.98 76.36 73.62 73.12 72.57 72.65 72.38 72.05 71.42 70.82
72.41 73.07 74.35 75.10 75.80 76.13 75.54 76.90 76.30 76.35 76.47 76.36 75.59 76.09 77.09 77.63 77.30 75.86 76.07 76.90 77.64 78.14 77.40 77.51 78.10 77.30 76.88 76.46 76.27 76.47 76.84 77.29 77.03 77.20 76.78 76.50 74.35 74.46 73.81 73.82 74.12 74.04 73.41
72.50 73.31 73.99 74.54 75.53 75.70 75.86 76.54 76.14 76.13 75.54 74.81 74.83 76.75 77.25 77.41 77.30 78.08 76.82 76.60 77.98 78.89 78.52 78.96 77.84 77.44 77.07 76.78 76.24 77.08 77.68 77.31 77.49 78.09 77.50 77.41 77.29 74.85 76.00 75.16 74.96 75.01 74.95
72.45 73.13 74.18 73.98 74.57 75.16 75.60 75.86 75.20 75.26 74.84 74.52 74.96 76.08 77.29 77.28 77.91 77.42 76.04 76.26 78.10 78.85 77.91 76.79 76.36 76.53 76.19 75.94 76.70 76.97 76.90 78.21 78.04 78.36 77.54 77.31 77.39 77.11 77.08 76.76 76.68 76.41 75.69
72.42 73.31 73.84 74.48 74.03 74.78 75.89 75.53 75.53 75.83 75.09 74.96 75.32 76.02 77.45 77.02 76.93 77.38 76.13 77.11 78.96 77.91 77.49 76.32 76.88 77.14 75.98 75.96 74.94 76.74 77.02 77.70 78.25 77.06 77.55 77.40 77.64 77.24 77.18 78.11 76.92 76.75 76.16
72.18 73.39 74.10 74.42 74.75 75.53 75.28 75.55 75.27 75.36 75.78 75.89 75.27 75.84 77.18 76.56 77.23 77.27 76.43 78.36 77.86 77.32 77.29 76.92 78.66 77.50 77.02 76.38 74.82 75.32 77.65 78.00 78.52 78.29 77.58 76.61 77.78 77.54 77.39 77.86 78.32 78.50 76.49
72.96 72.88 73.96 74.76 75.66 75.20 74.32 74.09 74.25 74.09 75.34 75.51 75.66 76.26 77.24 76.78 76.76 77.45 76.07 76.67 77.09 76.27 77.23 78.27 77.75 77.85 75.68 76.47 74.88 73.92 75.70 76.94 77.01 76.84 76.78 77.17 77.02 77.07 76.80 78.12 78.50 77.96 77.94
73.36 73.84 74.06 74.82 76.13 76.17 75.31 75.48 75.22 75.25 75.54 76.00 76.15 76.91 77.43 77.09 77.02 77.20 77.24 76.08 76.56 75.60 77.22 78.56 78.75 75.96 76.99 76.74 74.13 73.49 71.00 72.93 74.68 75.98 76.48 75.72 75.28 75.40 75.08 76.39 77.23 77.57 78.11
72.73 73.93 74.25 75.44 76.17 76.60 76.38 75.83 75.73 75.53 75.82 75.30 75.61 75.87 76.85 77.14 76.95 77.50 77.70 77.26 77.83 77.54 75.09 77.81 77.89 77.54 74.14 76.51 77.53 73.99 70.49 69.26 71.71 74.18 74.30 74.31 75.54 74.37 74.55 74.29 74.57 75.41 76.94
72.84 74.02 75.03 75.50 76.29 76.82 76.98 76.08 75.82 74.06 73.40 74.42 75.29 75.82 76.00 77.16 76.79 77.22 78.06 78.52 78.34 76.35 77.24 77.42 77.69 78.45 77.38 72.94 76.02 77.13 76.95 74.93 70.17 69.30 73.95 74.48 74.19 72.78 73.81 73.15 73.76 76.70 79.82
73.01 73.59 74.66 75.89 76.02 76.59 76.97 76.94 75.50 75.50 75.13 75.15 75.21 76.44 77.37 77.22 77.23 77.32 78.04 78.43 78.40 77.95 78.55 79.17 78.50 79.29 77.50 75.28 74.06 74.64 76.67 74.73 75.25 71.92 69.91 71.52 73.66 73.13 72.22 71.74 74.55 75.86 78.45
73.19 73.38 74.31 76.05 76.74 76.72 76.59 76.69 76.55 77.18 76.48 75.15 75.62 74.69 75.20 75.36 76.02 77.44 77.62 78.37 78.65 78.59 78.91 79.06 79.48 79.29 78.23 77.63 75.96 76.05 73.34 72.67 72.08 71.78 70.58 71.60 71.42 72.65 72.20 71.59 71.48 73.36 76.41
MSLP
1015.18 1015.37 1016.05 1015.97 1016.20 1016.34 1016.55 1016.54 1016.61 1016.79 1016.92 1016.99 1017.12 1017.21 1017.19 1017.09 1017.11 1017.20 1017.15 1017.17 1017.25 1017.21 1017.28 1017.14 1017.24 1017.34 1017.46 1017.51 1017.57 1017.62 1017.52 1017.62 1017.59 1017.65 1017.72 1017.83 1017.91 1018.00 1017.99 1017.81 1017.35 1017.37 1018.18
1014.60 1015.28 1016.18 1016.24 1016.42 1016.66 1016.71 1016.79 1016.85 1017.07 1017.21 1017.29 1017.43 1017.59 1017.60 1017.51 1017.55 1017.52 1017.51 1017.54 1017.47 1017.47 1017.52 1017.51 1017.62 1017.70 1017.81 1017.87 1017.89 1017.91 1017.96 1017.95 1017.93 1017.75 1017.71 1017.82 1018.14 1018.28 1018.19 1018.06 1017.73 1018.18 1018.39
1014.79 1015.43 1016.06 1016.55 1016.61 1016.83 1016.91 1017.02 1017.10 1017.28 1017.46 1017.67 1017.77 1017.82 1017.90 1017.81 1017.92 1017.83 1017.79 1017.82 1017.69 1017.87 1017.94 1017.99 1018.03 1018.05 1018.06 1018.18 1018.23 1018.23 1018.30 1018.37 1018.20 1017.68 1017.21 1016.78 1017.84 1018.44 1018.47 1018.44 1018.53 1018.63 1018.73
1014.91 1015.39 1015.92 1016.83 1016.86 1017.20 1017.26 1017.37 1017.42 1017.64 1017.83 1017.98 1017.97 1018.13 1018.12 1018.03 1018.23 1018.23 1018.16 1018.29 1018.34 1018.35 1018.27 1018.44 1018.38 1018.36 1018.35 1018.48 1018.56 1018.56 1018.57 1018.57 1018.29 1017.62 1016.78 1017.23 1017.60 1018.70 1018.67 1018.72 1018.79 1018.89 1018.97
1015.06 1015.46 1016.42 1016.98 1017.19 1017.39 1017.58 1017.66 1017.80 1017.89 1017.98 1018.17 1018.28 1018.23 1018.25 1018.41 1018.52 1018.53 1018.53 1018.69 1018.70 1018.73 1018.79 1018.70 1018.61 1018.67 1018.64 1018.77 1018.75 1018.80 1018.79 1018.72 1018.38 1017.56 1017.89 1017.46 1017.35 1018.83 1018.89 1018.90 1018.98 1019.04 1019.05
1015.15 1015.73 1016.89 1017.16 1017.41 1017.58 1017.71 1017.88 1018.03 1018.07 1018.20 1018.48 1018.52 1018.56 1018.65 1018.75 1018.76 1018.72 1018.81 1018.93 1019.01 1019.08 1018.89 1018.92 1018.87 1018.90 1018.95 1018.99 1018.97 1019.10 1019.07 1018.82 1018.08 1017.81 1017.64 1018.11 1018.30 1019.24 1019.24 1019.30 1019.34 1019.40 1019.44
1015.29 1015.81 1016.69 1017.41 1017.66 1017.80 1017.96 1018.16 1018.28 1018.55 1018.63 1018.57 1018.75 1018.94 1019.06 1019.06 1019.03 1019.05 1019.08 1019.20 1019.29 1019.27 1019.15 1019.19 1019.09 1019.11 1019.13 1019.23 1019.21 1019.27 1019.20 1018.83 1017.90 1018.08 1018.08 1018.09 1019.02 1019.49 1019.51 1019.58 1019.65 1019.73 1019.71
1015.16 1015.74 1016.63 1017.55 1017.80 1018.01 1018.24 1018.46 1018.43 1018.69 1018.91 1019.03 1019.16 1019.24 1019.32 1019.36 1019.38 1019.33 1019.42 1019.54 1019.59 1019.52 1019.49 1019.51 1019.41 1019.32 1019.36 1019.42 1019.37 1019.44 1019.34 1018.89 1018.13 1018.24 1018.19 1018.67 1019.80 1019.83 1019.83 1019.93 1019.91 1019.86 1019.81
1015.61 1015.98 1016.52 1016.90 1017.71 1018.15 1018.27 1018.63 1018.68 1018.83 1019.07 1019.32 1019.56 1019.54 1019.64 1019.65 1019.66 1019.66 1019.76 1019.83 1019.87 1019.84 1019.77 1019.74 1019.64 1019.56 1019.58 1019.57 1019.60 1019.67 1019.54 1018.93 1018.11 1018.40 1018.21 1018.91 1020.23 1020.26 1020.28 1020.28 1020.24 1020.17 1020.16
1015.63 1016.00 1016.53 1016.98 1017.05 1017.29 1017.96 1018.72 1018.86 1019.02 1019.20 1019.54 1019.51 1019.76 1019.78 1019.78 1019.93 1019.95 1019.91 1020.12 1020.13 1020.01 1019.98 1019.95 1019.84 1019.78 1019.71 1019.62 1019.68 1019.66 1019.38 1018.84 1018.29 1018.54 1019.01 1020.07 1020.51 1020.52 1020.56 1020.54 1020.52 1020.52 1020.49
1015.83 1016.11 1016.36 1016.83 1017.23 1017.63 1017.87 1018.74 1019.11 1019.29 1019.35 1019.49 1019.66 1019.79 1019.45 1018.80 1019.32 1019.56 1020.29 1020.35 1020.22 1020.18 1020.15 1020.03 1019.92 1019.79 1019.40 1019.34 1019.42 1019.29 1018.97 1018.73 1018.40 1018.53 1019.29 1020.66 1020.68 1020.71 1020.79 1020.81 1020.83 1020.79 1020.79
1015.47 1015.94 1016.05 1016.37 1016.96 1017.48 1017.49 1018.51 1018.58 1018.83 1018.34 1018.55 1019.49 1019.35 1018.97 1019.21 1019.60 1019.53 1020.19 1020.43 1020.31 1020.26 1020.05 1019.91 1019.73 1019.30 1018.79 1017.84 1018.17 1018.62 1018.11 1018.52 1018.50 1018.73 1019.77 1020.65 1020.73 1020.79 1020.87 1020.93 1021.04 1020.96 1020.99
1015.40 1015.80 1016.12 1016.38 1016.99 1017.02 1017.43 1018.02 1018.13 1018.41 1018.49 1019.03 1019.48 1019.54 1019.71 1019.64 1019.76 1019.31 1019.61 1019.46 1019.59 1019.98 1019.01 1019.01 1018.74 1018.56 1018.54 1018.27 1018.07 1018.06 1018.41 1018.30 1018.41 1018.71 1020.14 1020.66 1020.76 1020.82 1020.89 1021.02 1021.08 1021.03 1021.04
1015.45 1015.77 1016.16 1016.53 1017.23 1017.24 1017.71 1017.93 1017.97 1018.12 1018.57 1018.68 1019.17 1019.97 1020.03 1019.65 1019.99 1019.74 1019.51 1019.84 1019.81 1019.53 1019.65 1019.34 1018.85 1019.05 1018.74 1018.40 1018.36 1018.31 1018.09 1018.24 1018.55 1018.69 1019.96 1020.49 1020.68 1020.75 1020.83 1020.97 1020.97 1020.98 1021.04
1015.50 1015.95 1016.28 1016.97 1017.53 1017.80 1018.23 1018.28 1018.40 1018.37 1018.71 1018.79 1019.52 1020.15 1019.84 1019.71 1019.95 1019.78 1019.99 1019.76 1019.91 1019.79 1019.43 1019.35 1019.20 1019.12 1018.73 1018.10 1018.18 1018.29 1017.99 1018.30 1018.47 1018.71 1018.85 1020.12 1020.36 1020.49 1020.61 1020.81 1020.81 1020.82 1020.84
1015.53 1015.94 1016.38 1017.09 1017.69 1017.97 1018.29 1018.67 1018.70 1018.71 1018.98 1019.30 1019.42 1019.73 1020.32 1019.96 1020.22 1020.01 1020.09 1019.90 1019.90 1019.84 1019.65 1019.60 1019.69 1019.18 1018.65 1018.11 1018.11 1018.34 1018.32 1018.20 1018.52 1018.79 1018.53 1019.05 1019.91 1020.17 1020.38 1020.51 1020.46 1020.42 1020.45
1015.33 1015.81 1016.29 1016.99 1017.43 1017.99 1018.32 1018.54 1018.71 1018.74 1018.81 1019.10 1019.30 1020.03 1020.24 1020.32 1020.44 1020.24 1019.94 1019.98 1019.86 1019.99 1019.96 1019.59 1019.34 1018.71 1018.27 1017.92 1018.18 1018.01 1017.99 1018.27 1018.13 1018.56 1018.63 1018.52 1018.75 1019.56 1019.79 1020.00 1020.04 1020.00 1020.01
1014.95 1015.68 1016.31 1016.69 1017.20 1017.84 1018.17 1018.43 1018.45 1018.58 1018.77 1018.92 1019.08 1019.42 1020.06 1020.33 1020.50 1020.53 1019.94 1019.84 1020.02 1019.79 1019.55 1019.31 1019.04 1018.75 1018.42 1018.20 1018.08 1017.91 1017.81 1017.90 1018.17 1018.37 1018.36 1018.36 1018.12 1018.11 1018.91 1019.09 1019.43 1019.58 1019.62
1014.92 1015.61 1016.21 1016.65 1016.99 1017.60 1018.14 1018.30 1018.55 1018.79 1018.88 1018.67 1018.88 1019.10 1019.80 1020.03 1020.19 1020.15 1019.77 1019.80 1020.20 1019.65 1019.52 1019.42 1019.08 1019.12 1018.72 1018.46 1017.74 1017.55 1017.75 1017.70 1017.70 1017.52 1018.06 1018.19 1018.09 1018.11 1017.79 1018.37 1018.67 1018.97 1019.07
1014.66 1015.47 1016.13 1016.50 1016.89 1017.49 1017.78 1018.36 1018.24 1018.21 1018.44 1018.50 1018.67 1018.89 1019.50 1019.68 1020.11 1020.22 1019.73 1019.94 1020.00 1019.62 1019.51 1019.62 1019.77 1019.35 1018.99 1018.63 1017.99 1017.52 1017.60 1017.43 1017.41 1017.47 1017.51 1017.39 1017.32 1017.68 1017.60 1017.71 1017.72 1017.38 1018.17
1014.30 1015.11 1015.82 1016.34 1016.78 1017.31 1017.56 1017.72 1017.90 1017.92 1018.05 1018.19 1018.38 1018.90 1019.30 1019.47 1019.74 1020.01 1019.47 1019.65 1019.79 1019.84 1019.92 1019.93 1019.56 1019.30 1018.74 1018.71 1017.88 1017.38 1017.09 1017.23 1017.18 1017.04 1017.08 1017.11 1017.21 1017.21 1017.50 1017.53 1017.67 1017.18 1016.95
1013.63 1014.58 1015.39 1015.99 1016.60 1017.01 1017.12 1017.36 1017.38 1017.54 1017.56 1017.72 1017.99 1018.61 1019.06 1019.22 1019.38 1019.50 1019.50 1019.31 1019.39 1019.32 1019.84 1019.85 1019.85 1019.15 1018.72 1019.00 1018.46 1017.54 1016.74 1016.57 1016.76 1016.98 1017.15 1017.22 1017.31 1017.07 1016.92 1017.02 1017.29 1017.28 1017.11
1012.84 1013.79 1014.66 1015.49 1016.09 1016.64 1016.73 1017.20 1017.54 1017.61 1017.57 1017.71 1017.76 1018.19 1018.54 1018.95 1019.20 1019.44 1019.46 1019.32 1019.47 1019.64 1019.10 1019.60 1019.54 1019.58 1018.81 1018.89 1019.35 1018.67 1017.60 1016.96 1017.40 1017.10 1017.38 1017.27 1017.71 1017.32 1017.08 1016.73 1016.71 1016.87 1016.92
1011.83 1012.77 1013.84 1014.78 1015.49 1016.18 1016.60 1016.59 1016.92 1016.78 1016.76 1016.82 1017.19 1017.50 1017.81 1018.54 1018.87 1019.07 1019.27 1019.34 1019.47 1018.89 1019.04 1019.25 1019.16 1019.51 1019.63 1018.87 1018.96 1019.00 1019.30 1019.14 1018.19 1017.29 1016.99 1017.06 1017.30 1017.02 1017.00 1016.59 1016.41 1016.45 1016.70
1011.11 1011.77 1012.76 1013.92 1014.73 1015.27 1015.96 1016.20 1016.49 1016.50 1016.14 1016.46 1016.69 1017.07 1017.71 1018.06 1018.45 1018.61 1018.85 1019.08 1019.29 1019.38 1019.03 1019.28 1019.30 1019.60 1019.33 1019.28 1018.84 1018.69 1018.87 1018.78 1018.82 1018.38 1017.50 1017.05 1017.02 1016.82 1016.63 1016.44 1016.24 1015.95 1015.97
1010.27 1010.86 1011.71 1012.86 1013.85 1014.57 1015.15 1015.80 1015.99 1015.95 1015.89 1015.80 1016.33 1016.54 1016.95 1017.29 1017.79 1018.20 1018.36 1018.72 1018.91 1018.84 1019.04 1018.99 1019.14 1019.44 1019.59 1019.44 1019.12 1019.09 1018.59 1018.39 1018.19 1018.11 1017.70 1017.30 1016.87 1016.58 1016.36 1016.05 1015.78 1015.62 1015.49
Wind_Speed
9 9 7 8 12 13 12 11 11 11 11 12 11 10 12 12 13 13 14 15 15 15 15 16 16 16 16 16 17 16 16 16 16 16 15 15 15 13 10 7 12 16 13
12 11 7 9 11 12 12 9 9 11 12 13 11 12 10 13 13 14 13 14 15 15 14 17 17 16 16 16 16 16 16 15 13 10 15 17 14 14 12 14 15 14 12
11 11 10 7 10 11 12 12 12 13 15 13 11 11 11 11 12 14 13 14 15 15 16 15 14 14 15 14 14 15 14 12 9 4 5 12 14 13 13 13 13 12 11
11 10 10 8 9 10 12 13 14 19 16 13 12 13 10 11 12 14 13 15 14 14 13 13 14 15 13 9 10 14 12 11 7 6 7 9 13 12 12 11 11 10 10
11 10 12 10 9 10 12 14 15 16 14 12 12 11 12 13 14 14 13 14 13 13 13 14 13 14 14 14 13 12 11 8 1 5 9 7 11 11 10 7 10 9 11
11 10 12 10 9 8 12 14 14 13 13 11 11 12 13 13 12 14 14 13 12 11 13 13 12 11 11 12 12 11 9 3 3 9 7 9 12 9 10 10 10 11 9
11 12 12 10 9 8 10 11 12 12 11 11 10 12 13 11 12 13 13 11 10 10 12 11 12 10 11 11 11 10 8 5 8 8 8 10 11 8 9 8 8 8 7
12 11 13 10 10 10 9 11 9 10 11 11 12 12 11 11 12 12 11 9 8 9 10 10 11 12 10 9 10 10 7 8 8 8 8 11 11 12 11 12 11 9 8
9 10 9 10 10 10 10 9 7 9 10 12 11 12 11 11 12 12 10 8 8 8 9 8 9 11 7 7 9 9 5 6 9 7 8 9 9 9 8 8 7 7 8
9 10 8 7 8 8 12 9 7 7 8 10 11 11 11 12 11 9 10 9 8 8 7 6 7 7 5 6 5 4 3 6 10 8 9 8 8 8 8 8 8 7 7
8 9 8 9 7 7 9 10 8 6 7 9 9 7 11 6 9 8 11 6 7 7 5 5 5 4 4 7 8 5 7 6 8 6 8 8 7 7 8 7 7 7 7
11 10 9 10 10 8 7 8 7 6 6 5 6 5 3 5 7 8 7 4 6 2 1 0 4 9 12 4 6 10 6 6 6 6 8 7 5 6 6 6 6 6 7
10 8 8 9 7 9 8 6 5 5 5 5 5 2 5 3 4 3 4 5 3 1 3 2 4 7 7 6 5 6 5 4 5 5 9 6 4 4 4 4 4 4 4
10 9 10 9 8 6 7 5 5 4 4 4 5 4 4 4 4 2 3 4 1 3 4 4 5 6 8 6 6 6 4 4 4 4 9 6 3 1 1 1 1 1 1
10 9 9 9 7 7 5 5 3 3 4 4 4 4 2 2 2 3 4 2 2 2 3 4 5 5 5 6 7 5 5 5 5 3 4 9 6 5 4 3 4 3 2
11 11 10 10 9 8 7 6 5 4 5 4 4 5 4 2 2 3 4 2 1 2 4 5 5 5 5 5 5 6 4 3 4 3 3 6 10 8 7 6 7 7 6
12 12 11 10 10 9 8 7 5 5 5 4 4 5 4 4 5 1 2 2 1 2 3 2 5 3 4 3 4 3 2 3 3 2 3 3 5 13 11 10 10 10 10
12 12 11 10 12 11 9 7 5 4 5 5 5 6 6 5 3 5 4 3 3 1 1 3 4 5 5 4 3 3 4 2 3 2 4 4 4 5 12 14 12 11 13
13 13 13 12 12 11 9 7 6 5 6 5 5 5 7 6 6 5 4 3 2 1 2 4 4 5 4 5 6 2 3 2 2 2 3 4 5 6 5 10 13 12 15
14 13 13 12 11 10 8 6 6 6 6 6 6 6 7 6 6 6 4 2 4 2 1 5 5 5 3 5 7 2 2 2 1 1 2 4 1 4 5 5 4 6 16
14 14 14 13 12 10 9 8 8 7 7 7 6 7 7 7 8 7 5 5 4 3 3 2 3 1 4 5 7 5 3 3 2 1 1 1 2 2 5 4 5 5 4
16 16 15 14 14 12 9 8 7 7 7 7 7 9 9 9 9 8 5 5 3 3 4 2 3 5 2 4 6 6 3 4 1 2 2 3 4 4 5 4 5 6 7
18 18 17 16 15 14 12 8 8 6 6 8 8 9 10 10 10 9 8 7 4 5 5 3 3 2 5 2 4 5 4 4 7 3 1 4 4 5 7 7 6 7 8
19 18 18 18 16 15 15 11 11 10 10 8 8 8 9 12 11 10 9 7 6 6 2 5 4 4 3 5 1 0 3 4 4 5 3 3 5 5 5 7 6 4 4
19 19 18 18 18 17 16 14 12 13 10 9 8 10 10 11 12 12 10 9 7 6 5 5 3 4 2 5 3 3 2 4 3 5 8 7 6 6 6 7 5 5 3
20 20 19 19 18 18 17 18 16 14 12 9 10 10 10 10 11 12 12 10 9 8 8 7 5 6 6 5 5 4 5 5 6 6 8 8 10 7 7 7 7 4 5
Wind_Direction
150 129 121 99 96 105 119 131 133 127 126 120 114 95 82 91 80 86 86 85 84 83 87 85 81 78 80 76 75 78 80 84 79 86 89 86 87 89 82 72 151 97 95
137 125 127 108 95 95 99 112 135 128 125 123 119 96 91 89 88 84 87 88 88 86 83 80 77 73 76 72 70 69 70 68 73 90 117 102 84 85 73 59 58 86 93
136 126 141 115 102 96 94 98 107 123 123 118 110 107 95 93 88 88 85 86 83 82 77 76 75 75 77 74 72 71 69 71 69 47 257 80 85 82 83 82 88 93 96
136 134 129 113 102 99 95 101 105 114 109 113 112 105 98 90 90 87 88 83 76 73 79 76 77 72 70 83 86 73 71 70 53 334 60 71 86 83 84 84 87 95 108
134 127 108 118 112 102 100 100 110 112 108 104 107 104 96 89 87 92 89 83 78 78 78 73 70 68 73 70 70 68 68 69 30 93 73 25 93 77 80 85 116 96 48
129 125 120 119 112 107 101 104 108 104 109 107 98 91 97 90 92 89 84 76 72 76 68 66 65 68 81 73 68 67 68 44 281 72 81 98 61 70 69 64 64 75 74
137 116 126 116 114 112 105 107 101 109 104 89 98 97 93 98 89 80 78 73 72 71 68 64 63 67 85 76 73 66 60 12 70 74 83 66 70 69 72 75 76 78 77
131 130 125 123 118 113 108 100 104 109 111 116 107 101 92 97 93 86 78 76 75 75 72 60 60 67 81 73 70 64 43 329 86 72 66 75 51 57 60 65 66 78 83
133 126 130 128 122 117 109 106 101 107 110 108 106 96 96 86 86 86 84 82 79 78 67 55 59 62 70 76 70 70 61 321 73 60 78 73 54 55 55 57 61 65 68
150 133 132 127 138 148 137 108 114 113 102 99 103 104 116 107 98 114 131 80 82 73 61 50 53 52 71 95 93 88 188 248 64 87 71 69 62 63 67 68 67 65 67
160 143 154 141 150 120 125 114 135 119 105 126 127 124 182 117 124 125 65 84 76 64 48 35 23 339 252 168 140 198 253 58 73 70 77 80 74 74 73 74 73 72 70
163 156 165 146 143 153 138 148 132 133 169 94 95 107 125 73 50 73 91 95 82 48 171 183 271 255 259 48 134 194 70 81 71 78 79 101 91 85 82 79 75 74 73
162 160 161 150 161 156 121 157 157 158 138 131 108 163 75 137 162 131 125 136 107 225 39 355 31 31 32 15 44 60 70 80 78 79 98 112 99 92 92 88 84 80 83
172 171 164 149 157 144 137 190 154 161 161 169 117 126 125 184 153 130 91 106 190 45 355 15 19 14 21 38 35 38 83 43 71 64 114 135 139 128 111 115 133 123 104
177 178 169 157 164 160 191 150 192 173 189 122 165 128 151 122 103 166 107 95 31 359 24 359 16 19 347 52 46 36 49 64 64 38 93 155 184 199 224 242 252 247 247
180 182 171 172 168 175 197 176 186 181 129 193 161 133 154 176 133 128 153 133 93 349 5 354 4 343 333 10 43 31 12 75 61 14 24 150 184 211 225 236 251 259 257
179 182 178 185 178 183 191 191 200 170 183 174 176 151 179 215 148 259 152 188 89 47 299 325 309 342 1 6 59 59 336 52 22 342 300 318 164 196 210 228 240 249 253
190 184 188 190 180 188 184 192 207 190 203 194 184 170 185 181 193 203 189 169 49 277 339 341 354 342 21 360 2 347 353 348 27 285 274 301 297 304 192 206 219 237 249
193 185 191 190 190 188 187 203 205 184 224 202 197 194 168 189 178 248 205 132 274 309 357 330 346 4 4 349 301 350 354 332 328 338 315 283 274 272 297 179 202 220 240
185 188 194 190 195 188 187 202 203 197 208 214 205 206 172 192 191 206 196 223 266 285 243 2 350 360 317 1 328 340 315 310 13 307 306 255 290 298 286 303 278 237 213
185 187 195 194 185 189 192 196 198 205 201 203 210 198 187 204 190 191 221 199 221 238 3 299 323 85 331 360 294 331 195 190 196 202 31 331 50 303 341 304 284 302 246
189 193 195 202 192 196 198 206 214 210 208 207 199 184 208 200 199 201 225 203 206 203 216 242 314 313 290 43 337 289 304 183 161 18 1 328 10 328 328 293 319 294 290
199 194 197 201 199 200 206 197 195 210 229 199 196 195 198 203 203 216 201 243 178 251 213 216 234 299 325 327 359 334 315 3 332 120 45 9 352 335 326 323 292 300 286
201 198 199 199 201 200 200 199 204 204 204 200 200 200 189 201 203 207 216 211 220 245 248 224 214 305 287 314 293 74 348 353 337 312 309 85 276 315 348 317 317 286 329
207 203 198 198 201 204 197 217 199 222 205 194 203 183 217 186 207 210 208 211 218 234 210 275 251 250 265 302 295 297 252 259 201 299 308 321 317 326 311 312 330 309 289
213 209 201 195 201 200 199 203 211 206 232 205 200 191 197 200 196 211 212 215 217 228 221 231 226 225 266 303 301 290 282 300 303 306 298 302 305 307 323 303 297 305 277